Theta_e
309 309 309 309 309 308 308 308 308 308 308 308 308 309 308 309 309 309 309 309 310 310 310 310 311 311 311 311 311 312 312 313 313 314 314 314 314 314 314 314 314 313 313 313 313 313 313 313 313 313 314 313 314 315 316 316 315 318 326 324 315 315 315 315 320 316 313 317 313 312 312 312 314 313 313 314 314 314 314 314 314 314 314 314 313 313 313 314
309 309 309 309 309 309 309 309 309 309 309 309 309 309 309 309 309 309 309 309 310 310 310 311 311 311 311 311 311 312 313 313 314 314 314 314 314 314 314 314 314 315 314 314 314 314 313 313 313 313 314 313 314 315 315 317 314 319 324 319 318 322 314 311 315 312 312 314 312 313 312 311 313 312 312 314 314 313 313 314 314 314 314 314 313 313 313 313
311 310 310 309 309 309 309 309 309 309 309 309 309 309 309 309 309 309 309 310 310 310 310 311 311 311 311 311 312 312 313 314 314 314 314 314 314 314 314 314 315 315 314 314 314 314 314 313 313 313 314 313 314 315 314 316 315 315 318 321 325 319 311 310 312 312 313 313 312 313 312 311 313 312 312 312 312 312 312 314 313 313 314 314 313 313 314 314
312 312 311 310 309 309 309 309 309 309 309 309 309 309 309 309 309 310 310 310 310 310 311 311 311 311 311 311 312 313 313 314 314 314 314 314 314 314 314 314 314 315 315 314 313 314 313 313 313 313 313 313 314 314 314 315 315 314 317 324 320 311 312 314 313 314 313 312 312 312 311 312 313 312 312 311 312 313 312 312 313 312 313 314 314 313 314 314
313 313 312 311 310 310 310 309 309 309 309 309 309 309 309 309 309 310 310 310 310 310 310 311 311 311 311 311 312 312 313 315 315 313 314 314 314 314 314 314 314 314 315 314 313 313 313 313 313 313 313 314 314 314 313 314 314 315 316 317 313 309 314 316 313 314 313 312 312 311 312 313 312 311 311 311 312 313 312 311 312 311 312 313 313 313 314 314
313 313 313 312 312 311 310 310 309 309 309 309 309 309 309 309 309 310 310 310 310 310 311 311 311 311 311 311 312 312 313 314 314 313 314 314 314 314 313 314 314 315 315 314 313 313 313 313 313 313 313 312 313 313 313 314 314 316 316 312 312 312 314 315 314 314 312 312 312 311 312 311 311 311 311 310 311 312 311 311 311 311 312 313 313 313 314 314
312 312 313 313 312 312 311 310 310 309 310 309 309 309 309 310 309 310 310 310 310 310 311 311 311 311 311 311 311 312 313 314 313 314 314 314 314 314 313 314 315 315 315 314 313 313 313 313 313 313 313 312 311 311 312 314 313 316 317 312 313 313 312 314 313 312 312 311 312 312 311 310 311 312 311 310 310 311 311 311 311 311 312 312 312 313 313 314
311 311 312 312 312 312 311 311 310 309 309 309 309 309 309 309 309 310 310 310 310 310 310 310 311 310 310 311 312 313 314 314 314 314 315 315 315 314 315 315 315 315 315 315 313 313 313 313 313 312 312 311 311 311 311 312 313 316 318 313 312 312 312 313 312 312 312 312 312 311 310 310 311 311 310 310 310 310 311 311 311 311 312 312 312 312 312 312
309 310 311 312 312 312 312 311 310 309 309 309 309 309 309 309 309 310 309 310 310 310 310 310 310 310 311 312 313 314 314 314 314 315 315 316 316 316 316 315 316 316 316 315 313 314 315 314 314 313 313 311 311 311 310 312 313 314 314 312 311 311 312 312 312 313 312 312 312 311 311 311 310 311 310 309 310 310 311 311 311 312 312 313 312 312 312 312
309 309 310 311 311 312 312 311 311 310 309 309 309 309 309 309 309 309 309 310 310 310 310 310 310 311 312 313 314 314 314 315 316 316 317 317 318 317 317 317 317 317 316 315 314 314 315 315 315 314 313 312 311 311 310 312 313 312 311 311 311 311 312 312 313 312 311 311 310 311 313 310 309 312 312 310 310 310 311 312 311 312 312 312 312 312 312 312
308 309 309 310 311 311 311 311 311 310 309 309 309 309 309 309 309 309 310 310 310 310 310 310 311 312 314 314 314 314 314 315 315 316 317 318 318 318 318 317 317 317 316 315 314 314 314 315 315 314 314 312 312 311 311 311 311 311 311 312 312 311 312 313 311 310 311 312 310 310 311 309 309 312 311 309 310 311 311 312 311 312 312 312 312 312 312 311
308 308 308 309 310 311 311 311 311 310 310 309 309 309 309 309 309 309 309 310 310 310 310 312 313 314 315 315 314 314 314 314 315 315 316 317 317 317 316 316 316 316 316 315 314 314 315 315 315 315 314 313 312 312 312 311 311 311 311 314 315 313 315 312 309 309 311 312 311 310 313 316 315 311 309 309 310 311 311 312 311 311 311 311 311 311 311 311
307 307 307 308 310 310 310 311 311 310 309 309 309 308 309 309 309 309 309 310 310 312 313 314 315 315 314 315 315 315 315 315 316 316 315 315 315 315 314 313 315 316 315 314 314 314 315 315 314 314 313 312 313 312 312 310 310 312 310 312 316 317 319 312 307 310 311 311 311 311 317 326 319 308 308 310 310 311 311 311 310 310 310 310 310 310 310 310
307 307 307 308 309 309 309 310 309 309 309 308 308 308 309 309 309 309 310 311 313 314 315 315 315 315 315 315 315 315 316 316 316 316 316 315 314 314 314 314 315 314 314 314 315 315 315 315 314 313 312 313 312 311 314 313 313 314 310 315 318 317 324 316 307 310 313 311 310 312 318 324 317 307 308 311 310 311 311 309 308 308 308 308 309 308 309 309
307 306 306 307 308 308 308 308 308 308 308 308 308 308 309 309 310 311 313 314 315 315 315 314 314 315 315 316 316 316 316 316 316 316 315 315 314 314 314 314 314 314 314 314 315 315 314 315 314 313 313 312 313 315 320 321 322 320 313 321 322 315 324 321 307 307 312 311 309 312 318 320 314 307 308 310 310 311 309 308 308 307 307 307 308 308 308 308
307 306 306 306 307 307 307 307 307 307 307 308 308 309 310 311 312 314 315 315 314 314 313 314 315 315 316 316 316 316 317 317 317 316 315 315 314 314 314 314 314 314 314 314 314 314 314 315 313 313 313 312 316 323 326 322 324 322 315 322 325 317 320 319 310 306 308 310 309 312 316 318 313 305 307 310 309 311 309 306 306 306 307 306 307 307 307 307
306 306 306 306 306 306 306 306 307 307 307 308 309 310 312 314 315 315 315 313 313 313 314 316 316 316 317 316 316 316 317 317 316 316 316 315 314 314 314 314 314 314 314 314 314 314 314 314 313 313 312 310 314 322 324 320 323 324 315 317 321 317 315 318 317 309 306 310 312 312 313 316 314 306 306 309 308 310 308 305 305 305 306 305 306 306 306 307
306 306 306 306 306 306 306 306 307 308 308 310 311 313 315 315 315 314 314 313 313 314 315 316 316 318 319 317 316 317 317 317 316 316 316 316 315 314 314 314 314 314 314 314 314 314 314 312 312 316 315 312 314 317 320 320 324 327 321 318 320 317 314 316 318 312 310 313 314 315 314 315 315 308 305 306 307 308 305 303 304 304 304 304 305 305 305 306
307 306 306 306 306 306 307 307 308 309 310 312 314 315 315 314 314 313 314 315 315 317 319 318 316 320 320 317 316 316 316 316 316 316 316 316 315 314 315 314 315 314 313 314 314 313 312 312 313 317 317 315 315 315 318 319 321 324 323 321 322 319 316 317 316 311 309 313 315 314 314 315 315 311 306 304 305 305 303 303 303 303 303 303 303 304 304 305
307 307 307 307 307 307 307 308 309 310 312 314 315 315 315 315 316 317 315 315 316 317 318 318 317 318 318 316 317 316 316 316 316 316 316 316 315 315 314 313 314 313 313 316 316 310 311 315 317 318 318 316 315 314 315 316 316 317 317 317 318 318 317 316 315 310 306 312 317 315 314 314 314 312 305 303 304 303 302 302 301 301 302 302 302 302 303 304
307 307 308 308 308 308 309 309 310 312 314 315 315 315 316 316 318 319 317 317 317 317 317 317 317 317 317 317 317 317 316 316 316 316 316 316 315 315 314 313 314 315 313 312 313 310 311 316 318 319 317 314 314 313 312 313 313 313 313 315 316 316 315 314 313 312 308 310 317 316 314 315 314 311 304 301 304 303 301 301 300 300 301 301 301 301 302 302
308 308 308 310 310 309 310 311 312 313 314 315 314 315 316 316 317 318 318 319 318 318 318 318 318 318 317 317 317 317 316 317 317 317 317 316 315 314 313 314 317 317 313 311 313 314 314 317 318 316 311 310 313 312 311 312 312 312 312 313 314 314 315 316 314 312 310 310 317 318 314 315 313 306 302 301 301 300 300 301 300 300 300 300 301 301 301 302
310 312 311 311 312 311 312 313 313 314 314 315 315 314 315 317 318 319 319 320 320 319 318 319 319 318 318 318 317 317 316 318 318 317 317 316 315 314 313 314 318 319 315 315 319 319 320 322 317 310 308 312 315 313 312 312 311 313 313 312 315 313 315 319 316 313 312 310 314 316 314 314 311 305 302 300 300 299 299 300 299 299 300 299 300 300 301 303
313 317 317 314 313 313 314 315 315 315 315 315 315 314 315 317 319 320 319 319 321 320 318 319 319 318 319 318 318 318 317 318 318 318 318 316 315 314 313 313 316 318 315 315 318 319 322 320 311 308 311 313 315 313 313 313 314 315 315 313 314 314 315 318 316 314 315 312 311 312 315 319 316 311 307 301 300 300 299 299 299 299 299 299 299 300 302 303
315 317 318 315 314 314 316 317 316 316 315 315 315 315 317 319 319 320 320 321 323 320 317 318 318 319 319 318 319 318 317 317 318 318 318 316 316 315 313 312 315 318 316 314 315 317 319 314 309 312 314 313 314 315 315 315 316 318 318 314 314 316 315 315 314 313 317 319 313 310 318 326 322 316 310 303 302 301 299 299 298 299 298 299 300 300 301 302
315 316 315 315 315 315 317 318 317 315 316 316 316 317 319 320 320 319 319 323 325 320 317 318 318 319 318 318 318 317 319 319 317 318 318 316 316 315 315 313 313 316 315 314 314 316 316 310 310 315 316 314 314 315 315 315 316 318 318 315 313 313 313 314 314 315 320 321 312 308 317 325 324 322 312 304 304 302 300 299 298 299 299 299 300 300 301 302
315 315 315 315 315 316 318 318 317 316 317 317 317 319 320 319 319 316 317 324 324 319 318 318 317 318 317 317 317 318 322 319 315 316 316 315 315 314 317 316 313 313 310 312 318 317 314 312 312 314 315 315 315 315 315 313 317 321 316 314 314 313 314 316 315 317 320 319 314 313 316 317 321 320 308 303 306 303 301 301 299 298 299 299 300 300 301 302
315 314 315 315 315 317 318 318 318 317 317 318 318 319 320 319 318 316 321 327 324 318 318 316 313 314 315 316 316 317 317 315 315 316 313 314 314 312 317 317 316 316 310 314 323 316 312 315 316 315 315 314 315 319 316 313 318 320 311 311 315 314 315 317 316 316 315 314 318 320 315 315 321 318 307 303 307 306 304 303 300 299 299 299 300 300 301 302
315 315 316 316 315 317 318 319 319 318 319 319 319 320 321 319 317 318 323 325 322 317 316 315 313 313 313 314 314 312 311 311 314 314 311 312 313 312 315 314 313 314 309 312 322 317 310 312 313 315 318 317 317 315 311 313 317 312 306 310 313 312 314 315 316 317 313 313 321 322 316 316 323 322 312 307 310 311 307 303 300 299 299 299 300 300 301 302
315 315 315 316 316 317 319 319 318 318 320 320 321 321 320 319 318 322 324 324 322 317 313 313 312 311 313 314 314 310 309 310 311 311 310 311 312 311 313 312 310 314 313 312 318 316 309 307 308 312 315 314 313 308 304 309 310 306 310 315 314 315 316 315 317 316 315 319 321 318 315 315 319 324 318 312 313 312 307 304 300 299 299 299 299 300 301 301
315 315 315 315 316 317 319 320 318 319 320 321 322 321 319 319 321 325 325 322 321 317 312 313 312 311 314 317 317 312 308 308 308 311 312 310 311 310 311 313 312 317 319 316 317 314 310 310 310 310 310 308 310 308 305 305 304 308 318 320 317 319 317 316 319 316 318 324 319 311 311 313 317 323 317 312 312 308 305 304 301 300 299 299 299 300 300 301
315 316 315 315 315 316 318 319 318 318 321 322 321 320 320 322 323 325 323 319 322 320 316 316 312 312 315 316 317 313 309 310 308 311 314 312 313 312 313 317 318 321 321 317 319 317 315 315 311 308 308 308 315 315 309 307 307 312 319 319 321 323 319 320 321 318 320 321 312 308 311 312 316 319 314 312 310 304 301 302 301 300 300 299 299 300 300 300
315 315 315 315 315 316 318 319 319 318 321 322 320 319 321 324 324 324 322 321 322 317 315 317 313 313 315 314 315 312 311 312 310 311 312 311 314 313 313 315 315 320 322 317 318 319 318 316 310 311 311 309 315 318 316 315 312 313 318 320 324 324 324 327 324 318 319 316 309 307 311 314 316 315 312 310 306 300 299 300 300 300 300 300 300 300 300 300
316 315 316 315 315 315 317 319 320 319 321 322 319 319 321 324 325 324 323 322 321 316 314 315 312 312 314 315 315 313 314 313 310 311 311 311 314 314 314 312 310 318 321 316 316 318 321 320 313 314 313 310 312 315 318 320 313 313 317 318 320 323 326 327 326 324 321 316 311 308 312 319 319 312 306 303 299 297 299 300 300 300 300 301 300 299 300 300
317 316 316 315 315 316 317 319 320 320 321 320 319 320 322 323 324 326 325 321 321 319 315 313 312 313 314 314 313 312 314 314 310 311 312 313 316 316 317 315 311 316 319 317 318 315 318 321 314 308 307 308 311 309 311 316 315 312 312 315 318 321 323 319 316 317 317 317 315 311 314 319 314 307 300 298 298 297 299 300 300 300 300 300 299 299 300 300
317 316 316 316 316 316 317 320 320 321 321 320 319 321 322 323 323 325 324 320 320 317 313 314 315 315 314 314 313 311 312 313 312 312 312 312 314 314 316 317 312 313 315 318 320 316 316 319 312 307 306 306 308 307 306 311 317 312 311 317 316 313 319 320 311 308 310 317 317 314 316 315 310 308 303 299 300 299 298 298 299 299 299 299 299 299 300 300
317 317 316 316 315 315 317 319 319 320 320 320 321 322 321 321 320 320 319 316 316 314 314 318 317 316 316 314 315 314 313 314 312 312 313 312 313 313 315 316 311 310 313 315 318 319 321 319 311 309 312 306 303 305 305 305 311 315 315 318 312 308 316 319 316 314 314 319 318 314 316 316 314 316 308 302 304 303 298 297 297 298 298 298 299 300 300 300
318 318 317 316 316 315 316 319 318 318 318 319 321 321 321 321 315 314 314 313 313 315 318 321 318 317 317 315 316 314 314 315 313 312 314 313 314 314 314 315 311 309 309 311 314 317 319 320 314 308 311 309 304 308 311 306 306 312 313 311 311 315 319 316 317 321 319 319 320 316 314 314 315 317 313 310 310 307 300 298 297 297 297 298 299 300 300 300
318 318 317 317 316 315 316 317 317 317 318 319 320 319 320 319 313 312 314 313 315 318 320 321 320 318 316 316 317 315 314 315 312 313 315 314 314 312 310 313 312 308 307 309 315 316 314 318 317 309 308 309 308 312 317 313 307 307 309 308 311 316 319 316 316 318 319 319 320 318 315 315 316 317 317 316 312 306 302 299 298 298 298 299 300 300 300 300
318 317 316 317 318 317 316 317 316 317 317 318 318 316 316 316 312 312 314 314 315 317 319 320 320 320 318 316 316 316 316 315 311 314 316 314 314 312 309 313 313 309 307 307 313 317 315 315 317 313 308 309 313 315 316 315 312 311 312 313 313 312 313 315 313 314 318 320 320 319 316 316 316 311 312 314 309 303 301 300 299 298 299 299 300 300 300 300
318 316 313 314 317 318 317 317 316 316 316 316 315 315 314 313 312 311 312 313 314 314 315 317 318 319 319 317 316 316 318 317 312 315 317 313 315 315 311 311 311 311 309 309 314 319 316 315 319 317 312 315 318 312 308 311 313 314 315 315 315 314 315 316 315 313 314 317 320 319 316 317 315 307 306 310 306 302 300 300 300 299 299 300 300 300 300 300
317 315 312 312 315 317 316 315 312 312 315 314 313 314 314 312 312 312 311 312 313 313 313 314 316 317 317 316 316 317 318 317 315 316 317 316 317 315 311 308 308 309 311 312 315 314 312 315 320 319 316 315 312 305 301 304 309 312 313 315 315 315 317 319 318 315 313 314 315 315 316 315 309 302 303 304 302 300 300 299 299 299 299 299 299 300 300 300
314 312 311 311 312 314 315 313 309 309 311 311 310 311 311 311 312 312 312 312 313 313 313 313 314 315 314 314 315 316 316 316 316 316 316 317 316 311 308 308 307 309 312 314 315 311 311 316 319 318 316 311 307 305 302 302 307 311 312 312 313 315 316 317 317 316 316 316 315 315 316 314 306 299 298 299 299 300 300 300 299 299 299 299 299 300 300 300
311 309 309 310 310 312 314 313 310 310 308 308 309 310 310 309 310 311 312 312 312 312 312 311 312 313 313 313 313 314 315 315 315 314 314 316 314 307 306 308 308 309 311 313 314 312 313 317 317 317 317 313 311 311 310 308 310 313 313 312 313 314 314 314 312 313 314 316 316 315 315 314 309 301 299 299 298 298 298 299 300 299 299 300 299 300 300 300
309 308 307 308 310 311 311 310 310 309 307 308 309 309 309 309 308 310 311 311 310 310 310 310 310 311 310 311 311 311 312 314 313 312 313 314 311 306 305 307 308 308 309 310 310 311 314 316 315 317 318 316 315 316 316 315 313 312 312 311 312 312 313 314 314 314 314 314 314 313 314 314 310 305 306 304 301 301 300 299 299 300 300 301 300 300 301 300
308 308 307 307 308 308 308 307 307 307 307 308 308 307 308 308 307 307 309 309 309 309 309 309 309 310 310 310 311 310 311 312 313 312 312 313 311 307 305 306 307 307 308 308 308 311 316 316 315 318 318 315 317 317 315 315 315 314 313 312 312 311 311 314 315 315 314 314 314 313 313 316 313 310 311 309 306 308 304 298 299 300 300 301 301 301 301 301
308 308 307 307 307 306 305 305 306 306 306 308 309 307 307 308 307 307 307 308 308 308 308 309 309 310 311 310 310 311 310 311 312 312 312 313 312 307 304 305 306 306 307 308 308 312 317 316 314 317 316 314 316 316 312 312 314 316 315 314 312 310 310 312 314 314 315 314 314 312 312 314 313 311 313 313 312 310 303 297 300 301 301 301 301 300 300 300
306 307 305 306 307 306 306 306 305 304 305 307 308 307 307 308 308 308 308 307 308 308 308 309 309 310 311 311 311 312 311 311 311 311 312 313 312 309 307 306 305 305 306 307 307 311 317 317 313 314 314 313 313 312 311 311 312 313 313 313 312 309 309 311 311 312 314 313 312 312 311 311 310 310 313 313 309 307 304 302 303 303 301 300 299 300 300 300
304 304 304 305 306 305 306 306 305 304 305 306 306 306 307 308 308 307 307 307 307 308 309 310 309 309 311 311 311 311 311 311 312 311 311 312 311 311 311 310 306 304 305 308 307 308 313 315 311 311 314 313 309 307 308 310 311 311 311 310 310 308 309 311 311 310 310 311 311 310 310 309 308 309 311 308 304 304 304 304 303 302 301 300 300 300 301 300
303 303 303 303 303 303 305 306 305 305 305 305 307 307 306 307 308 306 306 307 308 308 308 309 309 309 311 311 311 310 310 312 312 311 312 312 310 310 312 313 310 305 305 308 308 306 310 312 309 309 314 312 307 305 306 308 309 311 311 309 307 307 307 308 309 308 308 308 308 308 308 308 306 305 305 303 303 303 303 302 302 301 300 300 300 301 301 301
303 303 303 304 303 303 304 305 304 305 306 306 307 307 306 306 307 306 306 307 308 308 307 308 308 308 309 310 310 309 309 310 311 309 310 311 310 310 310 310 310 309 308 307 308 308 309 309 307 309 313 311 306 306 307 306 306 308 308 307 306 306 307 306 306 307 307 308 308 307 307 308 304 302 302 302 301 301 301 301 301 301 301 300 301 302 302 301
303 302 302 304 305 303 303 304 304 306 307 307 306 306 306 306 305 306 307 306 306 307 307 307 308 307 307 308 308 308 308 308 309 308 308 308 307 307 308 307 307 310 310 307 307 308 308 309 309 309 312 309 303 304 306 306 307 308 307 308 307 305 305 305 305 306 306 306 308 307 307 307 303 300 301 302 299 298 299 300 300 300 300 300 300 300 300 299
Wind_Speed
0 0 0 0 1 1 1 1 1 1 1 2 2 2 2 2 2 2 3 2 2 3 2 3 3 4 5 6 7 8 9 10 12 13 14 13 11 7 1 3 2 2 2 4 4 4 4 4 5 5 5 5 5 5 5 5 4 3 2 3 2 1 2 4 6 5 3 2 4 9 11 3 4 7 9 9 8 11 16 17 12 6 4 5 7 12 16 15
2 2 2 1 1 1 1 1 2 2 2 3 3 3 3 3 3 4 4 3 4 4 3 4 5 5 7 8 8 10 10 11 13 14 12 8 3 4 7 6 4 5 5 6 6 5 5 5 5 4 4 4 5 4 3 4 5 3 3 3 1 4 3 4 6 5 3 3 8 10 8 4 6 7 8 6 8 14 15 16 10 5 7 8 11 13 11 10
5 4 4 3 3 3 3 3 3 3 3 4 4 4 4 4 4 4 5 5 4 5 5 5 6 7 7 8 9 10 11 13 12 8 3 4 7 9 8 5 5 7 8 7 6 5 5 4 4 4 4 4 4 3 3 4 3 2 4 2 4 6 4 5 6 5 4 6 9 9 7 8 9 7 6 3 9 12 6 8 8 9 15 14 14 10 7 8
7 6 6 5 5 5 5 5 5 5 5 5 5 5 5 5 6 6 6 6 6 6 6 6 7 8 8 9 9 9 11 12 6 3 6 8 8 6 4 3 6 9 10 9 7 5 3 3 3 3 3 3 3 3 3 4 2 2 3 2 4 4 2 4 4 3 4 5 8 9 8 9 10 7 6 2 5 7 3 4 6 12 17 14 11 7 6 7
8 8 8 8 7 7 7 7 7 7 7 7 7 7 7 7 7 7 7 7 7 7 7 7 8 9 9 9 9 9 9 6 2 6 5 5 4 2 2 4 7 9 11 10 7 4 2 2 2 3 3 3 3 3 2 3 2 2 2 3 5 5 2 3 2 3 4 5 8 9 8 9 11 11 8 4 3 5 7 11 11 13 13 8 6 5 6 6
10 10 10 10 9 9 9 9 9 9 9 9 8 8 8 9 9 9 9 9 8 8 9 9 9 10 10 10 10 10 6 2 1 2 3 4 5 6 7 9 9 10 11 9 5 2 1 1 2 2 3 2 2 1 1 1 2 1 2 2 3 5 4 5 5 5 6 7 9 9 10 11 12 12 8 4 4 7 10 11 9 7 5 3 3 3 6 8
12 12 12 12 11 11 11 11 11 10 10 10 10 10 10 10 10 10 10 10 10 10 10 10 10 10 10 10 10 10 7 7 8 7 8 9 11 11 12 12 13 12 11 8 4 1 1 1 1 1 3 2 1 2 2 1 2 2 2 2 2 5 6 7 7 9 11 12 13 12 12 12 9 8 7 6 5 5 5 3 2 1 0 1 2 3 5 7
14 14 14 14 13 13 12 12 12 12 12 12 11 11 11 11 11 11 11 11 11 11 11 11 11 11 10 11 10 9 10 11 11 10 10 11 13 14 14 15 15 14 10 7 5 2 1 1 1 1 1 0 2 2 2 1 1 4 3 3 2 5 8 9 11 14 14 14 14 10 12 13 8 7 7 7 4 4 5 4 4 3 1 0 2 5 5 6
17 16 16 16 15 14 14 14 13 13 13 12 12 12 12 12 12 12 12 12 12 11 12 11 11 11 10 11 10 9 10 10 9 8 8 9 11 12 13 14 13 12 10 7 5 3 2 1 2 2 2 2 3 2 3 2 2 4 4 3 3 7 10 12 13 13 12 12 10 7 10 10 4 2 3 8 6 5 4 4 4 1 2 5 7 9 9 9
19 18 18 17 17 16 15 15 14 14 13 13 13 13 12 12 12 12 12 12 12 12 12 12 12 11 10 11 7 5 8 8 7 7 6 7 7 8 9 10 10 10 8 7 6 4 3 2 2 2 2 2 3 2 4 3 1 2 2 4 7 10 12 13 14 13 11 10 8 5 7 6 1 1 2 7 8 5 3 4 3 2 4 6 8 9 10 11
20 20 19 19 18 17 16 16 15 15 14 14 14 13 13 12 12 12 12 12 12 12 12 12 12 11 11 11 8 7 10 10 8 7 7 8 8 7 7 7 8 8 8 7 7 5 4 3 2 2 2 2 3 2 4 3 1 1 3 6 8 10 12 13 11 9 5 4 3 4 5 3 2 3 2 5 7 3 3 4 3 4 5 5 5 7 8 10
20 20 20 20 19 18 18 17 16 15 15 15 14 14 13 13 13 12 12 12 12 12 12 12 12 12 11 12 14 15 15 14 12 11 10 10 10 10 10 10 10 9 9 8 7 7 5 4 4 3 3 3 3 0 2 2 1 2 4 4 7 9 8 8 3 1 1 0 0 1 3 4 1 3 5 6 5 3 4 4 4 4 4 4 4 5 6 8
20 20 20 20 20 19 18 17 17 16 15 15 14 14 13 13 13 12 12 12 12 12 12 12 12 13 11 11 16 16 14 14 13 14 14 14 14 14 13 12 12 10 9 9 8 7 6 5 5 5 4 4 2 1 2 2 1 2 3 2 5 7 5 3 2 1 3 1 2 2 2 5 3 1 7 9 5 4 5 5 5 5 5 4 4 5 6 6
20 20 20 20 20 19 18 18 17 16 15 15 14 14 13 13 13 13 13 12 12 12 12 12 12 12 10 11 16 16 15 14 13 13 14 14 14 14 12 10 10 10 9 9 8 7 6 5 5 6 5 3 3 3 1 3 3 2 1 2 2 2 4 5 3 3 3 1 3 4 1 5 3 1 9 12 6 4 5 7 6 6 6 5 5 5 6 6
20 20 20 20 19 19 18 18 17 16 15 15 14 14 13 13 13 13 12 13 12 12 12 12 12 11 9 11 15 14 14 15 16 15 14 13 12 11 10 10 10 10 9 9 8 7 5 5 6 5 4 4 4 4 2 4 3 2 1 3 2 1 5 8 5 2 1 1 2 4 2 6 3 2 11 14 7 4 6 8 7 7 7 6 6 6 6 7
20 20 20 20 19 18 18 18 17 16 15 15 14 13 13 13 13 13 13 13 12 12 12 11 11 10 7 9 13 12 12 12 13 13 13 14 13 11 10 10 10 9 9 7 6 5 6 7 6 5 4 4 4 4 3 4 3 3 0 3 2 1 3 6 4 4 2 2 2 2 2 5 2 3 12 14 7 5 8 9 8 7 6 6 6 6 6 6
20 19 19 19 19 18 18 17 17 16 15 14 14 13 13 13 13 13 13 12 12 12 11 9 9 8 8 11 12 12 12 12 11 11 11 12 13 12 11 10 9 9 7 6 6 7 8 7 6 4 2 3 3 4 3 2 4 3 1 2 3 2 1 3 4 4 6 3 1 3 0 5 6 3 13 12 7 6 9 10 8 7 6 6 6 6 6 6
20 19 19 19 19 18 18 17 17 16 15 14 13 13 12 12 13 13 12 12 12 9 9 10 7 3 8 13 13 11 10 10 11 11 10 11 12 11 10 9 9 9 8 7 7 8 7 5 4 2 2 2 2 5 3 5 4 3 2 2 2 2 2 3 4 2 5 4 2 4 2 8 10 4 13 11 7 7 10 10 7 7 7 7 7 7 7 7
20 19 19 19 19 18 18 17 17 16 15 14 13 12 11 11 11 12 13 13 11 7 4 9 11 4 3 8 9 9 9 8 9 11 11 11 11 11 9 8 9 10 10 6 4 7 6 4 4 1 1 3 5 7 8 8 6 6 5 4 3 3 4 4 5 3 1 3 3 5 5 8 10 5 8 8 8 10 10 9 8 8 7 7 8 8 8 9
20 19 19 19 19 18 18 17 17 16 15 13 13 11 9 8 5 8 12 16 18 16 12 11 13 12 7 5 6 7 7 7 9 11 11 11 11 11 10 9 9 8 6 5 3 4 5 3 3 5 7 8 9 10 8 4 6 5 3 3 4 4 5 5 4 4 0 0 5 5 4 7 7 4 5 4 5 9 9 8 9 8 8 8 8 9 9 9
20 19 19 18 18 18 17 17 17 16 15 14 14 11 8 8 4 3 7 12 17 20 21 19 17 16 14 10 7 7 7 8 9 11 11 12 12 10 10 10 7 3 2 4 4 3 4 4 6 9 9 7 6 8 6 2 4 2 2 3 4 4 5 6 3 4 1 2 4 2 2 8 5 1 4 3 3 6 6 6 8 8 9 9 9 9 9 10
19 19 19 18 18 17 17 17 17 17 16 14 15 14 10 9 8 6 6 8 12 16 18 21 22 23 22 18 13 10 9 8 10 13 13 15 15 11 10 9 5 3 2 4 4 2 2 4 9 11 5 5 3 4 5 3 3 2 2 2 4 3 3 5 3 4 2 2 3 4 4 7 2 2 3 4 5 5 5 6 8 9 10 10 11 11 11 12
19 17 18 18 18 18 18 18 18 18 17 16 17 16 13 10 8 8 7 6 11 16 18 20 24 26 26 24 21 17 14 11 12 15 16 18 18 14 12 9 4 4 3 4 5 4 3 5 10 10 7 6 2 4 7 3 2 3 3 3 4 2 0 4 3 3 2 1 2 2 4 6 0 2 2 4 6 8 8 7 8 9 10 12 12 13 14 16
18 16 19 20 19 19 18 17 18 18 18 18 17 15 13 11 8 7 7 5 7 11 17 21 22 25 27 24 21 20 20 17 13 14 19 22 19 12 10 9 5 4 4 7 7 6 6 5 3 5 7 7 5 3 6 4 2 3 5 5 4 3 5 6 3 3 3 3 1 1 4 5 1 1 0 2 4 6 6 7 8 8 10 12 13 15 17 19
20 21 24 23 21 19 16 16 19 20 19 17 15 13 11 9 7 5 4 3 5 6 10 16 17 20 24 21 18 18 17 17 16 14 18 24 21 11 6 8 6 4 6 6 5 5 7 5 3 5 4 5 6 4 5 6 3 3 5 9 9 8 8 5 1 4 3 3 2 1 1 4 3 2 2 1 2 3 3 5 6 7 9 12 14 16 18 21
21 22 24 23 21 17 16 17 20 20 18 15 12 11 10 8 5 2 1 2 4 4 4 9 11 11 15 16 17 15 6 9 15 17 17 22 22 12 5 5 3 3 6 6 2 3 3 2 3 5 4 5 5 4 5 7 4 2 4 8 9 8 5 4 3 3 1 2 2 2 3 3 5 3 2 2 2 2 2 3 3 6 9 12 15 17 19 22
20 21 21 20 19 19 20 18 19 19 16 13 12 12 10 9 7 3 3 3 5 5 7 7 8 8 11 13 19 15 2 4 11 14 18 21 20 14 7 4 3 2 5 5 1 2 2 2 3 4 5 5 4 4 5 7 7 3 4 4 6 7 6 6 6 4 2 2 3 2 3 2 4 4 1 2 3 2 1 1 1 6 9 12 15 17 19 22
21 21 21 20 20 23 23 18 16 17 14 10 12 14 11 11 10 5 4 2 3 5 6 5 7 9 11 17 21 13 4 7 8 8 18 20 17 11 6 6 7 4 5 6 4 3 2 3 3 5 4 3 5 5 8 10 5 4 2 5 6 6 6 5 6 3 1 1 3 3 2 2 5 4 2 1 2 2 3 4 4 7 11 13 16 17 20 22
21 22 22 21 22 24 23 18 15 15 14 11 12 15 14 14 9 4 3 2 2 4 3 6 8 7 12 16 12 5 5 4 3 8 15 16 15 7 3 7 8 6 3 3 4 3 1 3 5 7 5 4 4 2 6 9 4 4 6 7 5 5 5 4 4 3 2 1 4 5 3 2 4 4 1 0 3 4 5 4 6 10 13 14 16 18 20 22
22 23 23 22 24 27 24 21 18 15 15 14 14 17 16 13 7 4 2 4 2 3 4 7 6 6 12 11 2 1 3 2 5 12 11 9 10 6 6 7 7 6 1 3 1 3 0 2 2 4 4 5 4 3 2 3 4 8 7 6 6 5 4 3 2 3 3 2 5 5 2 2 2 4 3 3 3 4 6 4 5 11 15 16 17 18 20 21
22 23 24 24 28 31 27 25 23 18 18 18 17 20 17 8 3 3 6 2 1 2 5 4 3 6 11 7 2 3 2 1 6 11 6 4 6 5 7 6 4 4 2 3 2 3 1 1 1 3 5 7 7 5 5 4 5 6 3 4 4 2 3 3 4 3 1 4 5 3 1 1 3 4 2 3 3 2 6 8 9 13 18 20 19 19 20 21
22 23 24 27 31 32 29 28 25 21 20 20 21 22 14 3 1 7 6 2 1 4 4 4 3 5 7 3 3 5 3 2 4 6 4 3 4 4 4 4 4 3 2 4 2 3 2 3 1 2 5 6 6 4 4 4 3 3 3 5 4 2 3 2 3 1 3 5 3 1 1 2 5 5 3 4 3 2 3 8 15 20 23 24 22 21 21 21
22 22 24 28 31 33 32 27 25 23 21 22 23 17 8 3 8 10 7 2 2 3 3 4 2 4 6 4 2 3 3 2 4 3 2 3 3 4 2 2 6 4 1 4 3 0 2 4 1 4 3 6 7 5 3 1 1 4 4 4 3 2 2 2 3 2 3 3 1 1 1 1 4 4 2 4 3 3 3 7 16 25 28 27 25 23 22 22
23 23 25 28 31 34 33 27 25 25 24 25 22 10 3 8 9 6 9 7 1 2 3 4 4 5 6 4 3 5 3 2 4 4 2 4 4 5 4 3 4 4 4 3 3 4 2 3 3 4 1 5 7 4 5 5 4 3 4 5 4 4 4 3 3 3 3 2 2 2 0 3 3 2 2 4 4 5 5 8 14 22 26 27 25 24 23 23
24 25 27 28 31 35 34 30 27 27 30 27 15 5 7 11 7 3 7 7 2 2 3 3 6 5 3 2 3 5 3 2 4 4 3 4 5 5 5 5 6 4 4 4 2 2 2 4 3 1 1 3 4 2 4 6 3 1 2 4 2 4 4 2 2 4 3 2 2 2 2 3 3 2 3 3 3 3 4 9 15 21 25 26 25 25 25 25
26 27 28 29 33 35 34 35 30 29 37 28 9 6 11 8 4 3 3 3 4 6 6 3 3 4 3 2 2 5 2 1 5 4 2 3 3 4 4 5 7 8 6 5 3 2 2 3 3 2 2 2 1 2 2 3 3 2 2 3 4 3 5 3 1 1 3 1 3 2 3 3 1 2 2 2 2 2 1 8 16 23 25 25 27 28 28 28
29 30 31 32 35 34 35 37 32 32 37 25 9 11 9 3 4 3 1 1 5 8 9 4 3 5 5 3 4 6 2 1 4 3 3 3 3 5 5 4 7 12 9 4 2 3 4 1 3 1 2 2 1 4 6 5 3 4 3 4 3 1 4 3 1 2 3 2 4 1 3 2 1 2 2 2 1 2 3 6 13 19 23 25 29 31 30 30
33 33 32 34 35 34 35 37 34 34 29 13 8 12 5 3 5 3 1 1 4 6 6 6 6 5 6 5 4 6 5 4 4 4 4 3 3 6 7 4 6 12 12 6 2 1 4 1 4 1 2 1 2 4 5 5 4 4 4 2 3 2 1 2 2 1 1 3 4 2 2 3 3 4 2 4 7 7 6 6 9 17 23 28 32 34 32 31
35 32 28 34 36 34 35 35 34 32 20 6 8 10 1 1 4 5 4 1 2 4 4 4 4 2 4 6 4 5 6 6 7 5 4 4 3 5 7 4 4 7 9 8 4 1 3 2 2 1 1 1 2 2 3 1 3 4 2 2 2 2 3 2 2 2 2 1 3 3 2 2 4 5 7 10 11 10 10 8 10 20 29 34 36 36 35 33
36 23 15 29 36 34 35 35 31 24 11 5 8 6 1 2 2 5 5 1 2 2 1 2 3 3 4 3 2 4 4 5 8 5 3 4 3 4 5 3 4 4 3 5 4 1 3 2 2 2 3 1 2 2 5 6 3 3 2 1 0 1 2 1 1 2 3 2 2 3 4 4 3 3 6 7 7 10 14 13 14 23 33 36 36 36 36 34
35 13 6 22 30 33 35 29 20 12 4 3 3 1 1 2 2 3 5 4 3 2 1 1 2 3 3 2 2 2 3 4 6 4 2 4 3 2 3 3 6 7 4 4 3 3 2 2 3 1 0 3 4 3 3 5 5 5 5 5 5 3 3 2 2 1 1 2 4 2 6 6 3 2 3 4 4 9 16 16 17 26 34 34 34 33 33 33
29 8 4 18 25 32 32 16 4 5 3 3 3 3 3 3 3 3 3 4 3 1 2 2 1 1 2 2 2 2 3 3 3 2 2 3 2 2 0 1 6 9 7 3 2 3 2 4 3 1 3 4 4 3 1 2 3 4 3 3 4 4 4 5 4 3 1 1 2 3 4 5 2 2 3 5 5 9 16 18 15 20 26 28 29 30 31 30
21 7 8 20 26 32 26 5 2 3 2 2 4 5 4 4 3 4 3 2 2 1 2 1 1 1 1 1 2 2 2 2 2 2 1 1 1 1 1 2 5 6 4 2 1 2 2 3 3 0 2 2 4 3 2 1 2 2 1 2 4 3 3 4 4 3 2 3 2 2 5 4 1 2 4 5 6 6 13 18 14 13 18 23 27 29 30 30
15 10 12 21 25 28 20 4 4 7 2 3 4 3 3 3 2 3 3 2 2 2 2 1 1 2 2 2 3 2 0 1 1 1 1 1 1 3 2 2 4 2 1 0 3 6 4 1 3 2 1 3 3 3 3 3 1 2 2 2 3 4 6 3 3 3 1 4 7 3 8 6 1 2 4 3 1 2 7 14 15 14 17 23 28 30 30 30
13 8 10 16 18 18 11 2 4 6 4 5 5 3 3 2 0 2 4 4 4 3 2 1 1 2 2 2 4 3 1 2 1 0 1 0 1 3 3 1 2 1 2 1 4 8 6 2 3 5 3 4 3 2 2 2 2 2 2 3 4 5 7 4 3 3 4 3 7 6 9 5 1 1 3 3 2 1 4 10 14 16 19 24 29 31 31 30
10 4 5 8 8 7 5 5 7 5 4 5 4 3 4 2 1 3 5 4 4 6 5 3 4 4 3 3 4 3 3 2 3 2 2 2 1 2 3 2 0 1 2 3 4 6 3 1 3 6 6 6 5 5 5 3 4 3 3 5 6 5 7 5 3 4 4 2 4 8 5 3 4 1 2 3 1 3 4 8 14 18 21 24 29 33 32 30
7 3 5 5 3 2 3 6 8 4 4 6 3 3 6 4 2 4 6 4 6 10 6 3 5 4 3 5 5 3 5 5 4 4 2 3 2 1 1 3 2 1 2 3 3 4 3 2 4 6 7 5 4 5 5 4 4 6 6 7 7 5 6 7 6 7 5 3 10 6 6 4 9 5 4 6 4 4 6 10 15 18 20 24 28 31 32 30
3 3 6 7 4 2 2 7 10 6 5 6 3 3 7 7 4 4 6 4 6 10 6 2 6 6 5 7 5 3 6 5 4 5 3 2 3 1 1 1 1 1 2 2 1 3 3 3 3 3 5 2 5 3 4 4 3 4 6 8 7 7 9 10 10 8 7 8 13 4 6 9 9 4 7 8 7 7 8 11 13 14 18 23 25 26 27 28
4 4 5 5 3 3 5 11 14 9 6 6 4 3 7 9 6 4 4 3 3 7 7 3 5 8 7 6 5 4 5 5 4 4 3 3 4 3 2 2 1 1 1 2 1 1 3 2 1 1 3 1 3 2 3 4 2 3 7 10 8 9 11 12 12 9 8 11 12 6 8 14 7 5 7 6 5 6 7 9 12 15 18 21 23 24 24 24
6 5 5 5 4 5 9 12 12 8 5 6 4 3 5 8 8 5 3 5 4 3 6 5 4 7 7 6 6 4 4 6 5 3 4 5 2 2 3 3 3 2 1 2 1 0 2 1 1 3 1 3 1 2 2 3 3 5 13 12 6 8 9 10 9 6 5 9 10 7 12 14 4 8 8 5 4 6 8 11 13 15 17 20 22 23 21 20
8 6 8 7 3 4 7 7 7 5 3 5 5 4 5 6 8 6 3 6 7 5 6 8 6 5 5 5 7 6 6 8 7 8 8 7 5 5 5 4 6 5 1 2 1 1 2 1 2 3 2 4 1 3 3 2 1 8 18 12 8 9 8 8 7 6 8 10 10 8 11 9 3 7 7 7 8 10 13 14 13 14 17 21 23 22 19 18
13 10 9 7 3 5 6 3 4 4 3 5 6 5 5 6 9 9 4 5 10 11 10 11 9 5 3 6 9 11 14 15 12 10 9 7 5 7 7 6 9 7 4 4 2 1 4 3 2 3 3 2 1 2 4 3 1 9 13 8 11 11 7 5 6 9 10 10 7 8 9 4 3 5 5 6 9 11 14 16 14 14 16 18 20 20 18 17
Wind_Direction
204 195 184 143 130 136 166 179 178 180 174 191 197 188 189 190 195 201 207 210 218 233 244 264 293 305 313 317 318 319 317 317 319 317 314 311 309 308 262 145 101 16 342 328 322 314 323 338 339 346 354 10 26 38 54 51 45 36 92 80 31 169 182 176 185 194 174 279 299 334 344 352 315 330 339 329 314 315 313 313 324 324 310 318 316 317 314 312
278 279 278 279 270 246 237 238 233 230 226 226 225 220 217 217 221 224 228 234 241 252 267 281 298 306 310 313 314 315 315 318 319 316 316 315 327 107 117 109 65 29 5 337 316 306 310 324 332 347 360 20 32 42 65 45 45 66 110 73 239 202 207 192 189 199 195 293 301 317 330 318 308 317 333 334 310 317 318 321 340 353 336 337 330 331 332 331
280 283 284 283 281 278 270 265 259 253 249 246 245 243 238 239 241 245 248 249 256 266 278 286 293 299 303 305 308 313 318 321 322 329 1 90 113 115 110 83 38 15 5 352 327 305 302 321 335 350 8 43 47 49 61 40 44 84 101 78 239 216 230 221 210 227 247 288 298 311 317 305 309 314 318 318 305 308 303 312 331 335 330 337 339 350 13 18
275 278 280 280 280 279 277 272 268 264 260 259 257 256 254 254 254 256 260 260 265 269 272 280 284 291 294 297 303 311 321 326 333 92 110 116 120 121 105 40 4 358 357 352 336 312 308 324 335 354 23 55 41 35 47 32 38 141 125 149 204 183 238 239 227 267 278 286 293 304 308 306 318 316 300 310 314 308 311 320 323 319 321 331 337 354 24 25
267 271 271 271 272 271 273 270 268 266 263 262 260 262 261 260 260 260 261 261 264 265 268 274 280 286 289 294 299 307 329 348 81 127 134 141 149 194 295 316 329 344 349 344 331 315 312 316 333 11 41 53 40 37 34 41 81 152 178 177 167 156 221 274 268 298 299 298 295 299 304 306 314 309 293 281 271 289 311 310 306 307 309 320 330 345 0 357
263 265 265 265 264 264 265 265 265 264 262 262 260 261 261 260 261 261 261 261 262 264 268 272 279 285 288 292 295 303 321 330 216 179 216 236 247 270 285 297 310 324 331 330 319 307 299 307 342 29 61 53 64 71 80 116 127 172 258 208 182 192 230 287 296 297 298 298 293 293 298 301 309 311 309 308 287 304 312 305 300 303 307 309 313 325 336 342
263 263 263 261 260 260 260 259 260 260 260 260 260 260 260 260 260 260 261 261 263 266 270 275 281 284 287 292 294 300 294 277 279 275 265 260 260 268 276 285 295 303 312 311 290 267 253 278 323 115 89 52 167 148 128 172 161 147 255 258 248 237 249 289 293 291 292 290 290 294 293 292 302 303 318 350 350 357 9 25 35 56 117 245 270 324 342 347
262 262 261 260 259 258 257 256 257 257 258 258 259 260 259 260 260 260 262 263 267 270 273 277 280 283 287 292 296 299 288 286 290 282 270 260 257 261 266 274 282 290 296 289 269 247 235 248 241 186 108 163 204 179 154 188 185 157 219 260 252 259 276 294 292 289 289 289 293 293 282 284 295 286 313 1 22 54 59 77 86 118 149 286 339 2 8 5
262 261 260 260 258 256 256 255 255 256 257 257 258 259 259 260 260 262 264 267 271 273 277 280 281 284 287 289 297 298 290 293 296 288 274 260 257 257 261 268 273 280 281 267 252 242 242 233 236 238 244 219 190 186 161 170 265 193 200 260 267 281 295 299 291 288 287 288 289 280 279 290 316 298 8 43 70 86 71 96 102 105 331 359 3 5 7 5
260 259 258 258 256 255 255 254 255 255 256 257 258 259 259 260 261 264 267 271 275 277 279 280 282 285 285 288 288 280 285 291 291 288 275 259 260 259 259 263 266 269 266 255 244 240 240 240 265 246 247 221 169 168 166 161 279 205 231 290 279 290 301 297 288 287 286 283 274 245 271 295 51 144 70 58 70 81 65 82 82 1 357 7 2 356 357 354
260 259 257 255 254 253 253 253 255 255 257 257 258 260 261 262 264 267 270 272 275 278 279 279 282 283 283 284 257 245 279 287 281 277 266 260 258 253 257 262 265 260 251 248 238 229 227 242 268 240 236 205 159 180 198 191 296 334 332 303 293 310 306 294 287 289 292 278 260 221 253 307 76 119 85 56 67 53 6 41 33 10 16 11 358 349 346 348
258 257 255 254 253 251 251 252 253 255 257 258 259 260 261 264 266 268 270 272 274 275 276 278 280 279 280 277 261 262 279 278 271 268 261 259 251 248 261 266 264 258 249 239 223 220 230 250 262 250 229 172 158 204 197 186 299 337 8 322 307 338 323 305 318 357 40 277 269 194 281 321 8 113 70 45 53 21 0 37 37 31 35 26 11 354 351 357
259 257 255 253 251 250 250 250 252 254 255 256 257 259 261 264 266 268 269 271 273 273 276 277 277 278 276 270 270 274 277 272 267 264 259 257 256 258 263 261 254 249 243 230 222 229 245 258 250 229 206 176 175 156 139 95 27 313 28 24 318 348 330 317 47 16 353 298 207 110 295 292 285 115 54 35 29 4 11 46 54 61 62 47 34 14 12 12
258 256 253 251 249 249 249 249 250 251 253 254 255 257 260 262 264 267 270 271 273 273 274 274 274 274 266 264 273 274 269 265 261 257 257 256 256 258 255 247 240 236 232 231 238 249 255 254 230 205 193 189 170 139 88 24 31 323 5 31 355 355 284 295 330 308 348 346 192 134 214 266 248 101 34 26 22 7 39 66 65 65 64 58 53 36 26 25
253 253 251 250 248 246 246 247 248 249 250 251 253 256 257 261 264 267 269 270 270 270 270 269 268 268 264 266 270 270 264 260 257 254 252 250 249 249 240 231 227 225 232 241 249 251 239 213 196 179 167 172 144 111 27 353 17 23 329 309 343 135 274 307 337 342 51 79 99 120 190 281 245 110 17 17 27 31 69 80 69 62 60 59 55 52 49 46
247 247 247 247 246 244 243 242 244 245 246 249 250 253 256 260 263 265 267 267 266 265 263 263 262 258 263 271 266 262 259 254 255 253 246 244 242 238 230 225 224 227 235 237 231 212 183 171 162 147 145 151 127 93 44 355 336 0 105 248 270 186 284 317 347 35 60 108 37 53 201 290 247 95 11 13 33 43 80 81 67 63 53 55 59 63 71 70
240 240 241 242 242 241 239 238 240 240 241 245 247 251 257 260 263 264 262 262 261 258 257 256 257 258 257 260 259 255 254 250 250 247 241 237 234 231 226 222 219 219 213 193 182 168 164 157 146 148 114 97 105 96 63 319 285 310 44 219 244 212 213 305 315 19 40 93 41 5 140 269 258 63 20 23 44 54 83 78 66 70 59 63 67 69 77 78
237 236 235 235 237 237 235 236 236 236 238 240 245 250 254 259 260 260 258 256 253 255 259 241 227 277 260 244 244 248 250 247 242 236 231 225 220 220 218 214 207 195 171 158 165 163 165 144 124 143 35 45 114 118 165 233 218 204 171 191 247 242 217 262 274 326 24 34 3 332 294 271 273 0 32 38 57 67 84 82 76 79 72 77 75 75 79 79
235 234 232 231 231 231 231 232 232 233 234 236 242 245 250 255 256 256 252 243 231 223 247 224 201 193 237 227 232 243 247 240 229 224 219 212 208 206 201 196 188 176 157 148 170 165 156 109 95 152 213 201 189 172 203 214 178 177 177 167 198 233 244 240 249 255 3 5 297 272 260 267 275 321 23 40 69 81 90 90 87 86 81 82 80 80 83 85
233 233 231 231 229 228 228 229 231 232 231 234 237 237 240 237 247 260 243 235 235 233 238 232 216 217 227 238 237 231 227 223 217 213 209 205 202 194 181 170 164 165 158 151 176 164 148 145 170 207 214 207 204 201 213 191 139 156 167 175 202 218 258 260 261 281 350 284 267 251 244 263 267 307 355 16 77 78 83 88 86 87 87 85 85 86 88 90
231 231 231 232 229 227 228 228 231 232 230 233 230 226 222 209 207 266 243 244 250 246 245 246 240 235 239 246 243 226 212 208 208 205 203 199 191 181 174 163 146 161 198 135 124 121 137 175 216 225 219 201 197 201 209 175 134 146 185 229 246 216 250 262 259 302 339 186 265 333 308 269 255 337 354 22 84 62 73 93 90 94 95 94 96 96 98 99
231 228 227 230 230 226 226 229 231 231 229 227 225 221 219 218 228 251 266 274 266 255 248 244 243 243 242 240 237 228 211 202 207 204 200 191 187 186 177 163 150 169 170 120 112 88 135 213 236 232 196 121 105 151 167 192 189 185 163 212 259 232 268 286 299 338 12 173 258 352 322 275 256 81 20 58 89 81 93 110 106 111 110 108 109 107 112 115
234 238 235 232 232 225 222 226 228 229 227 223 223 221 220 225 234 256 276 284 275 261 249 242 241 241 240 238 235 228 214 212 218 209 204 195 189 192 180 161 149 146 149 183 175 166 200 241 243 222 164 131 121 120 130 148 190 199 179 191 246 225 231 279 296 337 9 124 252 350 316 283 163 94 40 73 101 97 97 109 110 115 113 110 111 112 116 119
229 235 241 235 232 224 218 222 225 227 228 224 224 222 222 228 235 269 280 275 281 262 249 244 241 239 238 236 233 226 219 222 224 212 208 200 186 184 187 168 140 143 189 202 192 197 227 243 219 162 153 171 194 152 141 166 236 243 207 206 224 203 207 229 281 326 338 11 28 70 322 295 250 184 269 95 107 95 95 109 108 109 111 111 114 115 116 116
227 224 234 233 230 222 209 217 224 227 230 226 225 219 218 225 229 268 284 289 287 261 248 239 233 236 233 229 227 218 218 225 225 218 210 201 190 175 175 173 160 196 201 179 184 229 252 243 149 122 134 169 181 196 187 179 212 289 229 211 215 213 218 223 8 12 3 351 346 74 297 290 316 284 219 164 72 60 74 95 104 112 117 120 119 117 118 115
236 231 237 231 223 211 200 215 227 230 231 227 218 205 208 206 194 227 97 16 287 233 203 211 209 219 216 212 204 191 208 235 219 216 204 199 199 184 159 162 152 204 179 145 166 230 254 241 145 149 159 160 176 226 221 168 146 293 247 209 208 205 200 183 135 107 133 264 327 67 167 256 318 310 229 147 70 37 41 65 109 132 128 129 127 123 122 117
240 235 236 227 212 199 200 214 224 224 224 222 204 187 193 182 158 141 81 1 277 186 149 173 176 183 191 185 176 168 184 195 184 200 193 190 197 190 184 173 125 186 162 131 223 242 173 94 83 132 148 157 184 231 219 160 137 237 249 163 167 177 182 176 154 165 222 254 333 26 131 227 292 284 267 139 118 57 4 285 180 154 143 138 135 131 127 122
240 234 232 225 208 198 201 210 217 214 210 208 192 180 177 168 160 132 94 314 263 138 133 162 156 165 169 165 168 162 139 143 143 187 185 182 188 185 201 199 164 170 162 151 218 262 131 156 179 150 125 168 205 220 189 161 153 241 207 119 136 152 157 148 137 169 245 43 307 301 136 209 267 271 335 119 178 220 216 219 212 179 162 152 147 140 133 129
236 234 230 222 208 199 202 209 211 205 196 186 179 177 168 160 155 106 88 237 207 108 114 150 144 150 148 153 169 158 120 130 120 168 170 175 184 175 181 191 159 139 143 161 209 245 113 190 188 146 134 198 213 249 185 172 184 188 134 96 83 80 88 98 115 133 78 82 245 246 185 197 267 278 303 138 236 228 204 208 206 188 175 164 157 148 141 136
232 233 226 215 204 198 201 207 206 196 183 174 173 172 162 154 139 105 181 231 183 97 103 144 155 151 140 138 178 197 128 90 114 140 149 162 173 150 120 148 134 122 75 4 239 240 131 121 160 149 168 175 141 56 73 140 139 138 118 76 62 47 49 58 68 96 77 276 246 239 216 189 266 275 231 190 234 199 167 170 199 195 185 176 167 157 148 143
229 230 223 212 203 198 198 202 203 193 176 171 171 166 158 142 93 168 208 226 62 114 110 139 176 152 152 149 174 184 125 71 138 140 137 139 150 134 120 130 110 93 17 333 294 304 344 129 241 194 167 132 104 62 37 53 108 121 96 88 92 6 16 28 357 46 119 251 257 261 270 166 214 263 252 223 253 208 167 169 181 191 191 183 173 164 156 149
226 225 223 215 204 200 200 203 202 192 176 170 170 165 155 126 222 215 215 72 104 198 150 169 193 165 174 144 118 163 123 114 167 142 135 140 150 165 154 162 154 97 333 235 226 335 290 226 236 147 170 156 119 78 46 30 57 90 89 103 104 353 11 355 306 283 221 242 262 270 169 188 230 249 234 205 229 256 209 181 179 183 186 183 176 169 162 156
223 220 222 217 208 203 201 203 201 194 181 170 169 164 139 183 220 216 213 184 203 203 127 128 125 130 156 134 133 175 117 146 186 148 131 126 148 198 223 184 157 127 143 189 174 355 287 285 183 133 197 195 165 135 135 175 142 149 147 130 126 107 80 281 266 274 269 254 288 315 91 202 264 270 220 195 220 257 242 198 187 184 181 179 176 171 166 161
218 216 218 216 214 208 201 199 198 194 187 173 166 155 142 216 221 192 194 210 240 62 84 104 97 102 146 168 214 182 130 196 176 133 119 122 143 201 224 226 178 117 101 137 170 171 191 279 198 160 202 190 183 174 154 145 141 176 164 130 142 151 161 223 222 214 255 281 309 308 248 186 210 251 251 252 283 285 248 209 192 189 184 179 177 176 172 167
214 215 216 215 215 209 202 199 193 191 190 177 161 162 195 217 229 154 188 203 163 79 55 82 106 117 182 245 263 203 182 216 167 127 147 160 170 193 188 203 199 154 131 157 200 155 170 257 256 316 335 153 177 197 125 113 122 208 134 112 158 183 154 164 190 175 181 295 297 237 228 221 192 225 292 292 312 314 233 196 186 189 188 184 184 183 177 172
212 212 214 215 215 210 204 200 194 191 190 178 161 209 207 218 213 164 191 174 156 145 114 88 95 120 205 244 249 230 227 160 157 146 181 190 206 202 190 209 195 179 166 158 183 146 131 268 299 0 14 66 123 188 103 111 166 158 128 169 220 182 117 116 214 74 81 256 266 196 230 289 326 265 309 26 16 357 191 184 183 186 187 188 190 186 181 177
207 209 211 216 217 214 206 202 201 200 196 184 185 211 208 220 185 164 256 136 144 141 134 175 194 154 189 204 198 211 206 129 160 165 185 197 221 194 198 239 194 188 195 169 186 193 146 237 311 62 93 21 59 114 66 46 107 122 177 209 203 118 86 104 210 357 47 239 270 208 211 247 155 247 325 26 292 262 207 190 185 185 188 193 194 190 185 180
205 208 211 217 220 216 209 206 207 207 205 199 213 214 202 196 177 126 79 153 122 136 152 200 204 171 182 190 190 189 180 179 175 171 177 196 244 186 173 210 191 192 202 170 132 216 132 164 303 21 121 322 6 101 75 24 53 114 176 175 111 133 135 96 147 218 197 246 288 293 230 225 193 203 220 216 219 210 198 197 188 189 194 198 198 193 188 184
206 204 208 217 219 216 210 210 210 208 208 222 228 223 194 122 167 120 119 67 72 139 176 205 195 161 174 173 166 174 180 181 169 170 179 184 228 189 169 187 183 196 202 165 154 204 114 146 263 295 222 277 14 83 165 210 34 64 95 66 62 142 163 150 147 168 177 229 289 295 272 238 226 204 186 202 206 185 178 191 198 198 198 198 198 194 190 189
205 201 209 215 215 215 211 209 208 204 205 228 224 222 90 92 164 135 142 132 44 119 200 214 165 139 166 167 150 166 171 168 166 176 196 178 182 196 194 183 145 165 183 144 148 138 86 131 208 279 306 215 173 203 188 178 151 104 109 138 246 105 117 168 153 121 135 168 222 284 283 255 239 208 191 212 212 181 181 188 197 203 201 201 200 196 194 192
202 204 224 205 206 211 204 196 198 195 193 237 226 228 155 143 130 141 154 150 105 88 130 146 144 144 147 141 154 167 134 141 169 177 194 187 170 174 201 168 146 153 130 108 153 169 126 142 164 196 261 191 227 256 203 183 169 153 169 190 185 159 123 143 255 258 110 180 178 205 275 268 227 193 208 229 220 195 195 193 195 203 204 203 201 199 198 194
196 202 219 187 190 200 194 181 179 173 167 205 178 148 159 137 125 147 147 133 114 68 92 93 75 128 119 121 135 128 103 121 172 175 178 199 173 129 141 120 150 154 135 120 184 177 128 113 116 172 201 207 264 303 238 206 151 131 173 189 161 153 136 150 215 234 177 240 132 112 275 278 240 203 238 247 245 220 209 205 206 208 206 205 204 202 199 196
185 166 178 176 175 183 183 169 345 174 163 188 147 128 141 137 144 158 151 137 118 69 88 74 351 57 69 91 103 85 86 116 151 166 184 217 142 32 0 119 146 145 123 109 162 147 121 100 108 276 304 324 336 350 355 359 102 125 245 174 155 169 154 159 184 165 170 212 117 87 262 267 321 297 291 274 263 241 216 212 214 213 208 209 209 204 199 198
162 138 156 170 172 177 178 176 204 185 164 148 139 115 123 119 132 147 144 139 114 94 96 67 16 53 52 65 94 106 62 98 130 159 151 198 50 28 30 126 164 159 76 129 174 171 178 125 122 140 342 336 349 7 345 334 275 206 222 193 174 124 105 107 117 108 229 202 144 178 255 255 256 317 342 355 329 257 219 210 212 214 210 210 210 205 202 202
142 119 148 168 177 185 184 140 155 166 150 144 147 147 132 103 318 152 124 113 116 119 118 127 164 139 113 79 104 146 161 92 123 100 79 72 355 23 31 51 209 235 10 21 160 164 173 167 143 154 187 222 213 185 221 243 204 201 186 192 199 148 139 143 120 155 239 189 146 203 251 265 319 350 348 13 80 170 216 203 210 219 218 216 212 205 203 204
146 120 149 165 176 183 168 119 124 137 154 151 140 154 152 133 244 172 147 139 157 158 150 167 173 154 150 139 126 159 190 142 136 136 124 166 258 359 24 42 143 169 66 97 135 142 141 220 188 181 205 216 202 202 205 154 138 190 207 194 198 184 166 144 122 197 206 143 223 232 228 269 275 239 286 289 195 215 230 203 208 217 221 221 213 206 206 207
151 159 158 160 158 157 153 148 140 128 161 166 148 156 159 143 134 176 173 177 180 175 172 189 182 169 166 162 145 167 189 174 157 161 152 158 181 294 40 74 82 121 111 111 129 119 107 245 223 206 225 223 167 183 195 145 160 201 210 209 204 183 167 169 199 211 156 166 255 237 134 232 256 198 204 250 229 223 236 220 219 222 223 220 213 210 211 211
118 154 158 157 158 180 185 162 153 137 149 165 150 139 159 159 154 164 174 185 186 180 181 210 198 188 168 165 160 155 172 176 176 176 161 151 166 154 104 80 75 132 129 100 103 112 130 230 232 197 224 199 100 133 174 156 193 209 206 214 201 168 169 191 215 211 163 207 253 236 153 241 259 183 196 226 214 218 234 234 235 235 228 220 214 214 216 217
112 124 146 146 141 161 155 149 150 146 147 158 154 152 166 171 169 152 143 146 176 193 190 181 194 194 180 167 158 146 166 173 175 183 170 168 180 155 147 195 183 152 120 88 50 99 137 204 205 158 239 259 90 113 156 165 222 261 239 225 196 172 181 197 215 211 192 231 259 274 264 266 257 173 203 219 207 228 244 246 241 235 227 218 213 216 220 219
149 141 148 133 102 126 141 144 150 152 154 164 173 174 162 164 166 158 150 155 151 194 197 176 171 185 187 185 184 189 186 166 167 194 175 166 193 179 178 197 162 124 78 92 66 339 155 184 93 102 270 295 57 100 117 158 192 258 258 243 179 164 191 207 223 209 193 246 261 264 269 272 232 175 201 212 199 216 229 235 234 231 226 218 214 217 218 216
181 163 152 141 116 143 150 146 149 149 161 180 182 166 159 170 167 151 166 192 174 160 173 172 166 175 188 204 208 211 203 191 207 225 203 190 197 190 196 191 151 139 127 135 137 128 162 193 58 93 212 266 226 143 151 110 73 268 266 250 167 164 194 202 212 194 189 228 244 244 258 267 210 173 198 217 217 221 232 236 232 228 224 219 219 223 228 233
192 181 166 151 143 165 159 135 146 166 183 180 175 158 151 167 167 155 159 213 192 185 186 179 172 170 185 205 214 222 223 223 232 233 212 201 190 182 190 182 158 152 159 155 133 113 151 152 106 130 199 260 5 145 151 94 344 269 265 232 180 188 192 178 210 213 202 207 216 231 246 249 153 159 185 225 227 230 245 250 247 243 237 232 234 241 250 255